Orbital elements:
2008 CN1                                            PHA, Earth MOID = 0.0344 AU
Epoch 2010 Jan. 4.0 TT = JDT 2455200.5                  MPC
M  80.96341              (2000.0)            P               Q
n   1.45710754     Peri.    7.08354     +0.93129511     +0.35934362
a   0.7705633      Node   331.62716     -0.34006524     +0.79895602
e   0.3481145      Incl.    7.21456     -0.13055673     +0.48222551
P   0.68           H   20.6           G   0.15           U   2
Residuals in seconds of arc
080202 703  0.4-  0.2-    080217 A53  0.2+  0.0     080225 704  0.3+  0.8+
080202 703  0.1+  0.1+    080217 A53  0.3-  0.2-    080225 704  0.0   1.3+
080202 703  0.5-  0.1+    080217 A53  0.6+  0.4-    080225 704 (0.1-  1.6-)
080202 703  0.5-  0.1-    080217 A53  0.2+  0.1-    080225 704  0.1+  0.9+
080202 673 (0.6-  1.7+)   080217 A53  0.0   0.1-    080225 379  0.0   0.1-
080202 673  0.4+  0.4+    080217 A53  0.8+  0.2-    080225 379  0.1+  0.3-
080202 673  0.1-  0.1+    080217 046  0.0   0.0     080225 379  0.0   0.1-
080202 673  0.3-  0.5+    080217 046  0.2+  0.2+    080225 151  0.0   0.0
080203 A17  0.3-  0.3-    080217 046  0.1-  0.4-    080225 151  0.2-  0.1-
080203 A17  0.5-  0.1-    080217 046  0.1-  0.4-    080225 151  0.0   0.0
080203 A17  0.2-  0.2-    080217 046  0.1+  0.8+    080225 151  0.1+  0.0
080203 A17  0.1+  0.2-    080217 046  0.2+  0.3+    080225 246  0.7+  0.2+
080203 B21  0.2-  0.7+    080217 046  0.3+  0.1+    080225 246  1.1+  0.2+
080203 B21  0.1-  0.5+    080217 448  0.1-  0.0     080225 246  0.7+  0.0
080203 B21  0.1-  0.4+    080217 448  0.0   0.2-    080225 246  1.4+  0.3+
080203 B03  0.3+  0.0     080217 448  0.1-  0.1+    080225 246  0.9+  0.2+
080203 B03  0.3-  0.5+    080217 448  0.3+  0.1+    080225 246  1.2+  0.2+
080203 B03  0.0   0.1-    080217 448  0.2-  0.2-    080225 246  1.0+  0.1+
080203 B03  0.2-  0.2+    080217 379  0.2-  0.2-    080225 246  0.8+  0.1+
080203 118  0.5-  0.2-    080217 379  0.5+  0.4-    080226 726  0.0   0.1+
080203 118  0.3-  0.1-    080217 379  0.1+  0.1-    080226 726  0.1-  0.0
080203 118  0.2-  0.2-    080217 379  0.2-  0.4+    080226 726  0.0   0.0
080203 854  0.3+  0.8+    080217 379  0.5-  0.2+    080226 726  0.1-  0.1-
080203 854  0.8+  0.6+    080217 379  0.4+  0.0     080226 726  0.2+  0.0
080203 854  0.2+  0.1+    080217 379  0.2+  0.2+    080227 H45  0.2-  0.0
080203 854  0.6+  0.5+    080217 379  0.3+  0.2-    080227 H45  0.3-  0.0
080203 G96  0.3-  0.2-    080217 J51  0.1+  0.3-    080227 H45  0.3-  0.1-
080203 G96  0.1+  0.3-    080217 J51  0.0   0.3-    080227 H45  0.2-  0.0
080203 G96  0.1-  0.0     080217 J51  0.2-  0.2-    080227 H45  0.2-  0.0
080203 G96  0.6-  0.2-    080217 J51  0.0   0.1-    080227 H45  0.2-  0.0
080203 704  1.0+  0.1+    080218 A17  0.3+  0.4-    080228 H45  0.5-  0.1+
080203 711  0.0   0.4+    080218 A17  0.6+  0.1-    080228 H45  0.4-  0.1-
080203 711  0.3+  0.3+    080218 A17  0.3+  0.1-    080228 H45  0.7-  0.3+
080203 711  0.2+  0.3+    080218 J51  0.0   0.0     080228 H45  0.2-  0.1+
080203 704  0.7+  0.1+    080218 A17  0.3-  0.1-    080228 H45  0.5-  0.1-
080203 704  0.5+  0.4-    080218 J51  0.3-  0.3-    080228 H45  0.4-  0.0
080203 448  0.3-  0.1-    080218 J51  0.1-  0.1-    080228 G72  0.1+  0.2+
080203 448  0.3-  0.2-    080218 J69  0.5+  0.5+    080228 G72  0.2+  0.2-
080203 448  0.3-  0.2-    080218 J69  0.2+  0.5+    080228 G72  0.5+  0.2-
080203 448  0.5-  0.1-    080218 J69  0.3+  0.2+    080228 G72  0.4+  0.1+
080203 448  0.4-  0.1-    080218 J69  0.5+  0.2+    080228 G72  0.2+  0.1+
080204 A80  0.1+  0.1+    080218 J69  0.5+  0.0     080228 G72  0.5+  0.4+
080204 A80  0.3+  0.1+    080219 H45  0.0   0.1-    080229 G72  0.1-  0.2+
080204 A80  0.5+  0.2+    080219 H45  0.1+  0.1-    080229 G72  0.0   0.3+
080204 A80  0.3+  0.4+    080219 H45  0.2+  0.1-    080229 G72  0.3+  0.1+
080204 246  0.5+  0.1+    080219 H45  0.0   0.1+    080229 G72  0.0   0.3+
080204 246  0.4+  0.3+    080219 H45  0.1+  0.0     080229 G72  0.8+  0.1+
080204 246  0.5+  0.1+    080219 H45  0.1+  0.1-    080229 G72  0.2+  0.3+
080204 246  0.4+  0.2+    080219 H45  0.1+  0.0     080229 379  0.4-  0.1-
080204 246  0.2+  0.0     080219 H45  0.0   0.2-    080229 379  0.3-  0.2-
080204 711  0.0   0.7+    080219 H45  0.1+  0.2-    080229 379  0.5-  0.4-
080204 711  0.1-  0.4+    080219 H45  0.1-  0.0     080229 379  0.1+  0.1+
080204 711  0.1+  0.4+    080219 143  0.1+  0.1-    080229 379  0.1-  0.3-
080206 711  0.6+  0.3+    080219 143  0.0   0.2-    080229 379  0.2+  0.3+
080206 711  0.1+  0.1+    080219 143  0.1-  0.1-    080301 H45  0.1-  0.1+
080206 711  0.5+  0.1+    080219 143  0.1+  0.0     080301 H45  0.1-  0.1-
080208 A48  0.5+  0.6+    080219 143  0.1+  0.0     080301 H45  0.1+  0.0
080208 A48  1.1+  0.4+    080219 143  0.1+  0.1-    080301 H45  0.1-  0.0
080208 A48  0.4+  0.7+    080219 143  0.1+  0.0     080301 H45  0.0   0.1+
080208 A48  0.3+  0.7+    080219 J51  0.1-  0.2-    080301 H45  0.1-  0.1-
080209 448  0.1-  0.1-    080219 J51  0.1+  0.2-    080301 379  0.1-  0.2-
080209 448  0.0   0.1-    080219 J51  0.0   0.1-    080301 379  0.0   0.2-
080209 448  0.0   0.1-    080221 J40 (2.3-  0.4+)   080301 379  0.3-  0.7+
080209 448  0.2-  0.1-    080221 J40 (2.7-  0.7+)   080301 560  0.3-  0.0
080209 448  0.2-  0.1-    080221 J40 (2.9-  0.1-)   080301 560  0.1+  0.4+
080209 046  0.3-  0.2-    080223 J34  0.6+  0.1+    080301 560  0.1+  0.3+
080209 046  0.2-  0.1-    080223 J34  1.2+  0.6+    080302 A53  0.1+  0.3-
080209 046  0.3-  0.0     080223 J34  0.7+  0.0     080302 A53  0.1+  0.2-
080209 046  0.1-  0.2-    080223 H51  0.2-  0.1+    080302 A53  0.4+  0.1+
080209 046  0.2-  0.2-    080223 H51  0.0   0.1-    080302 A53  0.1-  0.4+
080210 703  0.4-  0.0     080223 H51  0.3-  0.1-    080302 A48  0.0   0.1+
080210 703  0.6-  0.1-    080223 H51  0.3-  0.3-    080302 A48  0.1+  0.1+
080210 703  0.6-  0.2-    080223 H51  0.3-  0.4-    080302 A48  0.0   0.2+
080210 703  0.4-  0.0     080223 H51  0.1-  0.1-    080302 A48  0.3+  0.1-
080211 130  0.0   0.1-    080223 H51  0.4-  0.2-    080303 G72 (2.1+  0.2+)
080211 130  0.2-  0.1-    080223 H51  0.4-  0.2-    080303 G72  0.8-  0.5+
080211 130  0.0   0.2-    080223 H51  0.2-  0.2-    080303 G72  0.8-  0.9-
080211 130  0.3-  0.1-    080223 H51  0.3-  0.0     080303 G72 (3.0-  0.1+)
080211 G72  0.0   0.2-    080223 H51  0.2-  0.1-    080303 G72  0.4+  0.9+
080211 G72  0.3+  0.0     080223 H51  0.1-  0.2-    080303 G72  0.9+  0.6+
080211 G72  0.1-  0.0     080223 H51  0.0   0.3-    080304 726  0.3+  0.9-
080211 G72  0.3+  0.3-    080223 H51  0.3-  0.2-    080304 726  0.7+  0.6-
080211 G72  0.1+  0.1+    080223 H51  0.3-  0.1-    080304 726  0.1+  0.2+
080211 G72  0.4-  0.1+    080223 H51  0.1+  0.1+    080305 H51  0.2-  0.0
080211 F84  0.5-  0.3+    080223 H51  0.2-  0.1-    080305 H51  0.4-  0.1+
080211 F84  0.6-  0.2-    080223 H51  0.2-  0.2-    080305 H51  0.2-  0.2+
080211 F84  0.8-  0.4-    080223 H51  0.2-  0.2-    080305 H51  0.1-  0.0
080212 046  0.0   0.1-    080223 H51  0.2-  0.0     080305 H51  0.2-  0.0
080212 046  0.2-  0.1-    080223 H51  0.2-  0.1-    080305 H51  0.6-  0.2-
080212 046  0.2-  0.0     080223 H51  0.0   0.1-    080305 H51  0.2+  0.1-
080212 046  0.3+  0.1+    080223 H51  0.0   0.1-    080305 H51  0.2+  0.1+
080212 046  0.3-  0.1+    080223 H51  0.5-  0.0     080305 H51  0.0   0.0
080212 046  0.0   0.1-    080223 H51  0.5-  0.1-    080305 H51  0.0   0.1+
080212 046  0.2+  0.2+    080223 H51  0.4-  0.2-    080305 H51  0.0   0.0
080212 046  0.2-  0.0     080223 H51  0.3-  0.1-    080305 H51  0.3-  0.1+
080212 046  0.2-  0.1+    080223 H51  0.1-  0.0     080305 H51  0.2-  0.0
080212 046  0.1-  0.1-    080223 151  0.1+  0.1+    080305 H51  0.1+  0.1+
080212 046  0.2-  0.1-    080223 151  0.1-  0.0     080305 H51  0.1-  0.0
080212 046  0.0   0.2-    080223 151  0.1-  0.2+    080305 H51  0.1-  0.1+
080213 204  0.0   0.0     080223 151  0.1-  0.0     080305 H51  0.0   0.0
080213 204  0.1+  0.0     080223 151  0.0   0.1+    080305 H51  0.1+  0.1+
080213 204  0.1+  0.0     080223 151  0.1-  0.1+    080305 H51  0.0   0.0
080213 204  0.1+  0.0     080223 151  0.1-  0.2+    080305 H51  0.1-  0.1+
080213 204  0.0   0.1-    080223 A81  0.0   0.3-    080305 H51  0.1-  0.0
080213 355  0.6-  0.1-    080223 A81  0.1+  0.1-    080305 H51  0.1-  0.0
080213 355  0.4+  0.5-    080223 A81  0.0   0.3-    080305 H51  0.0   0.1+
080213 355  0.0   0.0     080223 A81  0.0   0.2-    080305 H51  0.0   0.0
080213 355  0.1-  0.3-    080223 A81  0.1+  0.1-    080305 H51  0.1-  0.1+
080213 355  0.1+  0.4+    080223 A81  0.1+  0.1-    080305 H51  0.1-  0.4+
080213 355  0.3+  0.6-    080224 H51  0.0   0.1+    080305 H51  0.1-  0.3+
080213 355  0.3+  0.4+    080224 H51  0.1-  0.2-    080305 H51  0.0   0.4+
080213 A78 (1.3-  1.9-)   080224 H51  0.2-  0.3-    080305 H51  0.1-  0.0
080213 A78 (1.0-  1.6-)   080224 H51  0.0   0.2-    080305 H51  0.0   0.0
080213 A78 (1.3-  1.7-)   080224 H51  0.1-  0.3-    080305 H51  0.2-  0.2+
080213 A78 (1.1-  1.7-)   080224 H51  0.1-  0.1-    080305 H45  0.1+  0.0
080214 046  0.2+  0.0     080224 H51  0.3-  0.1-    080305 H45  0.1-  0.1-
080214 046  0.0   0.1+    080224 H51  0.1-  0.2-    080305 H45  0.2-  0.1-
080214 046  0.0   0.1+    080224 H51  0.1-  0.1-    080305 H45  0.1+  0.0
080214 046  0.2-  0.1+    080224 H51  0.1-  0.2-    080305 H45  0.1-  0.2+
080214 046  0.1-  0.1+    080224 H51  0.2-  0.1-    080305 H45  0.1+  0.4-
080214 046  0.0   0.1-    080224 H51  0.2-  0.2-    080305 639  0.1-  0.5-
080214 046  0.1-  0.1+    080224 H51  0.3-  0.2-    080305 639  0.5+  0.1-
080214 A70  0.4-  0.4+    080224 H51  0.2-  0.1-    080305 639  0.0   0.2-
080214 A70  0.4-  0.2+    080224 H51  0.3-  0.1-    080306 240  0.0   0.2-
080214 A70  0.0   0.1+    080224 H51  0.2-  0.1-    080306 240  0.0   0.1-
080214 A70  0.5-  0.4+    080224 H51  0.2-  0.1-    080306 240  0.0   0.1+
080214 703  0.4-  0.2-    080224 H51  0.1-  0.1-    080306 240  0.1-  1.0+
080214 703  0.4-  0.1-    080224 H51  0.4-  0.1-    080306 240 (0.5-  2.2+)
080214 703  0.6-  0.2-    080224 H51  0.0   0.2-    080307 H51  0.2+  0.1+
080214 703  0.3-  0.3-    080224 H51  0.1+  0.1-    080307 H51  0.3-  0.5-
080214 A78 (1.3-  1.7-)   080224 H51  0.3-  0.1-    080307 H51  0.5-  0.3+
080214 A78 (1.3-  1.9-)   080224 H51  0.3-  0.2-    080307 H51  0.5+  0.4-
080214 A78 (1.4-  1.6-)   080224 H51  0.1-  0.1-    080307 H51  0.1+  0.1-
080214 A78 (1.3-  1.7-)   080224 H51  0.3-  0.1-    080307 H51  0.0   0.2+
080214 A78  0.8-  1.1-    080224 H51  0.4-  0.3-    080307 H51  0.5-  0.5+
080215 355  0.4+  0.0     080224 H51  0.0   0.1-    080307 H51  0.2-  0.4+
080215 355  0.3-  0.2+    080224 H51  0.3-  0.0     080307 H51  0.4-  0.2+
080215 355  0.4+  0.4-    080224 H51  0.4-  0.0     080309 H45  0.1-  0.6+
080215 355  0.4+  0.1-    080224 H51  0.2-  0.1-    080309 H45  0.1+  0.3+
080216 A17  0.2-  0.2+    080224 H51  0.2-  0.3-    080309 H45  0.2+  0.3+
080216 A17  0.1-  0.0     080224 H51  0.2-  0.2-    080309 H45  0.2+  0.3+
080216 A17  0.3+  0.0     080224 H51  0.3-  0.2-    080309 H45  0.5-  0.3+
080216 G72  0.1+  0.1+    080224 H51  0.2-  0.2-    080309 H45  0.5-  0.6+
080216 G72  0.1+  0.3+    080224 H51  0.5-  0.2-    080310 704  0.1-  0.0
080216 G72  0.1-  0.4+    080224 H51  0.1-  0.2-    080310 704  0.1-  0.3+
080216 G72  0.1+  0.5+    080224 H51  0.0   0.2-    080310 704  0.4+  0.5-
080216 G72  0.1-  0.0     080224 H51  0.1-  0.2-    080310 704  0.2+  0.2+
080216 G72  0.3+  0.2+    080224 H51  0.4-  0.2-    080324 H55  0.5-  0.3+
080216 A97  0.3+  0.0     080224 H51  0.5-  0.2-    080324 H55  0.1-  0.4+
080216 A97  0.6+  0.1+    080224 151  0.1+  0.0     080324 H55  0.1-  0.3+
080216 A97  0.3-  0.6-    080224 151  0.1+  0.1+    080407 H55  0.2-  1.2+
080216 A97  0.2+  0.0     080224 151  0.1-  0.3+    080407 H55  0.3-  0.4-
080216 A97  0.2-  1.1-    080224 151  0.0   0.2+    080407 H55  0.4+  1.5-
080216 A97  0.4+  0.2-    080224 151  0.0   0.1+    080408 H55  0.9+  0.0
080216 560  0.4-  0.6+    080224 151  0.1-  0.2+    080408 H55  0.4+  0.1+
080216 560  0.4-  0.4+    080224 151  0.1+  0.2+    080408 H55  1.3+  0.1+
080216 560  0.5-  0.2+    080224 113  0.2+  0.0     100131 H21  0.0   0.4-
080217 246  0.4+  0.2+    080224 113  0.1+  0.0     100131 H21  0.3+  0.1-
080217 246  0.3+  0.1+    080224 113  0.2+  0.0     100131 H21  0.4+  0.3+
080217 246  0.8+  0.1+    080224 113  0.1+  0.1-    100201 H21  0.2-  0.2+
080217 A53  0.4-  0.4-    080224 113  0.1+  0.1-    100201 H21  0.3-  0.0
080217 A53  0.1-  0.1+    080224 560  0.1-  0.2+    100201 H21  0.0   0.0
080217 246  1.4+  0.2+    080224 560  0.1-  0.1+    100201 H21  0.0   0.2+
080217 A53  0.6+  0.5-    080224 560  0.0   0.3+
080217 A53  0.5+  0.3-    080225 704  0.2+  0.9+

